| time (UTC) | temp F | wind direction | speed MPH | gust MPH | rain 1hr in | rain 24hr in | rain mn in | humidity % | barometer mb |
| 20260503004840 | 56 | 0.0 | 0.0 | 0.00 | 0.00 | 0.00 | 57 | 1024.7 | |
| 20260503003241 | 55 | 0.0 | 0.0 | 0.00 | 0.00 | 0.00 | 58 | 1024.8 | |
| 20260503001643 | 55 | 0.0 | 0.0 | 0.00 | 0.00 | 0.00 | 58 | 1024.9 | |
| 20260503000045 | 55 | 0.0 | 0.0 | 0.00 | 0.00 | 0.00 | 57 | 1024.9 | |
| 20260502234447 | 56 | 0.0 | 0.0 | 0.00 | 0.00 | 0.00 | 57 | 1025.2 | |
| 20260502232849 | 57 | 0.0 | 0.0 | 0.00 | 0.00 | 0.00 | 54 | 1025.1 | |
| 20260502231251 | 57 | 0.0 | 0.0 | 0.00 | 0.00 | 0.00 | 55 | 1025.3 | |
| 20260502225653 | 57 | 0.0 | 0.0 | 0.00 | 0.00 | 0.00 | 54 | 1025.4 | |
| 20260502224056 | 57 | 0.0 | 0.0 | 0.00 | 0.00 | 0.00 | 54 | 1025.4 | |
| 20260502222458 | 58 | 0.0 | 0.0 | 0.00 | 0.00 | 0.00 | 53 | 1025.5 | |
| 20260502220900 | 58 | 0.0 | 0.0 | 0.00 | 0.00 | 0.00 | 53 | 1025.8 | |
| 20260502215301 | 59 | 0.0 | 0.0 | 0.00 | 0.00 | 0.00 | 52 | 1025.8 | |
| 20260502213737 | 59 | 0.0 | 0.0 | 0.00 | 0.00 | 0.00 | 52 | 1025.9 | |
| 20260502213704 | 59 | 0.0 | 0.0 | 0.00 | 0.00 | 0.00 | 52 | 1025.9 | |
| 20260502212105 | 59 | 0.0 | 0.0 | 0.00 | 0.00 | 0.00 | 51 | 1026.0 | |
| 20260502210507 | 60 | 0.0 | 0.0 | 0.00 | 0.00 | 0.00 | 50 | 1026.1 | |
| 20260502204909 | 61 | 0.0 | 0.0 | 0.00 | 0.00 | 0.00 | 48 | 1026.0 | |
| 20260502203311 | 62 | 0.0 | 0.0 | 0.00 | 0.00 | 0.00 | 47 | 1026.3 | |
| 20260502201713 | 62 | 0.0 | 0.0 | 0.00 | 0.00 | 0.00 | 46 | 1026.3 | |
| 20260502200115 | 64 | 0.0 | 0.0 | 0.00 | 0.00 | 0.00 | 44 | 1026.3 | |
| 20260502194517 | 64 | 0.0 | 0.0 | 0.00 | 0.00 | 0.00 | 44 | 1026.3 | |
| 20260502193113 | 65 | 0.0 | 0.0 | 0.00 | 0.00 | 0.00 | 43 | 1026.1 | |
| 20260502192919 | 65 | 0.0 | 0.0 | 0.00 | 0.00 | 0.00 | 43 | 1026.1 | |
| 20260502191321 | 66 | 0.0 | 0.0 | 0.00 | 0.00 | 0.00 | 42 | 1026.0 | |
| 20260502185723 | 66 | 0.0 | 0.0 | 0.00 | 0.00 | 0.00 | 41 | 1025.9 | |
| 20260502184125 | 67 | 0.0 | 0.0 | 0.00 | 0.00 | 0.00 | 40 | 1025.8 | |
| 20260502182527 | 67 | 0.0 | 0.0 | 0.00 | 0.00 | 0.00 | 39 | 1025.8 | |
| 20260502180929 | 70 | 0.0 | 0.0 | 0.00 | 0.00 | 0.00 | 36 | 1025.4 | |
| 20260502163341 | 78 | 0.0 | 0.0 | 0.00 | 0.00 | 0.00 | 28 | 1024.1 | |
| 20260502161743 | 77 | 0.0 | 0.0 | 0.00 | 0.00 | 0.00 | 29 | 1024.4 | |
| 20260502160145 | 80 | 0.0 | 0.0 | 0.00 | 0.00 | 0.00 | 26 | 1023.8 | |
| 20260502151351 | 82 | 0.0 | 0.0 | 0.00 | 0.00 | 0.00 | 24 | 1024.1 | |
| 20260502130607 | 81 | 0.0 | 0.0 | 0.00 | 0.00 | 0.00 | 24 | 1025.2 | |
| 20260502123412 | 83 | 0.0 | 0.0 | 0.00 | 0.00 | 0.00 | 24 | 1024.9 | |
| 20260502121813 | 78 | 0.0 | 0.0 | 0.00 | 0.00 | 0.00 | 25 | 1026.5 | |
| 20260502120215 | 78 | 0.0 | 0.0 | 0.00 | 0.00 | 0.00 | 25 | 1026.8 | |
| 20260502114617 | 77 | 0.0 | 0.0 | 0.00 | 0.00 | 0.00 | 25 | 1026.9 | |
| 20260502113019 | 77 | 0.0 | 0.0 | 0.00 | 0.00 | 0.00 | 28 | 1027.0 | |
| 20260502111421 | 80 | 0.0 | 0.0 | 0.00 | 0.00 | 0.00 | 25 | 1026.2 | |
| 20260502105823 | 72 | 0.0 | 0.0 | 0.00 | 0.00 | 0.00 | 29 | 1028.5 | |
| 20260502104224 | 72 | 0.0 | 0.0 | 0.00 | 0.00 | 0.00 | 32 | 1028.2 | |
| 20260502102628 | 71 | 0.0 | 0.0 | 0.00 | 0.00 | 0.00 | 33 | 1028.3 | |
| 20260502101029 | 71 | 0.0 | 0.0 | 0.00 | 0.00 | 0.00 | 36 | 1028.3 | |
| 20260502090638 | 69 | 0.0 | 0.0 | 0.00 | 0.00 | 0.00 | 42 | 1028.3 | |
| 20260502071451 | 65 | 0.0 | 0.0 | 0.00 | 0.00 | 0.00 | 48 | 1028.9 | |
| 20260502065853 | 62 | 0.0 | 0.0 | 0.00 | 0.00 | 0.00 | 55 | 1028.5 | |
| 20260502064256 | 64 | 0.0 | 0.0 | 0.00 | 0.00 | 0.00 | 52 | 1028.3 | |
| 20260502062659 | 63 | 0.0 | 0.0 | 0.00 | 0.00 | 0.00 | 52 | 1028.4 | |
| 20260502061059 | 58 | 0.0 | 0.0 | 0.00 | 0.00 | 0.00 | 61 | 1028.9 | |
| 20260502055501 | 58 | 0.0 | 0.0 | 0.00 | 0.00 | 0.00 | 60 | 1028.9 | |
| 20260502053903 | 58 | 0.0 | 0.0 | 0.00 | 0.00 | 0.00 | 61 | 1028.5 | |
| 20260502052306 | 54 | 0.0 | 0.0 | 0.00 | 0.00 | 0.00 | 65 | 1029.4 | |
| 20260502050707 | 56 | 0.0 | 0.0 | 0.00 | 0.00 | 0.00 | 64 | 1028.9 | |
| 20260502045109 | 56 | 0.0 | 0.0 | 0.00 | 0.00 | 0.00 | 62 | 1028.9 | |
| 20260502043511 | 52 | 0.0 | 0.0 | 0.00 | 0.00 | 0.00 | 69 | 1029.1 | |
| 20260502041914 | 52 | 0.0 | 0.0 | 0.00 | 0.00 | 0.00 | 69 | 1029.0 | |
| 20260502040315 | 54 | 0.0 | 0.0 | 0.00 | 0.00 | 0.00 | 66 | 1028.6 | |
| 20260502034717 | 53 | 0.0 | 0.0 | 0.00 | 0.00 | 0.00 | 67 | 1029.0 | |
| 20260502033120 | 52 | 0.0 | 0.0 | 0.00 | 0.00 | 0.00 | 68 | 1029.0 | |
| 20260502031521 | 51 | 0.0 | 0.0 | 0.00 | 0.00 | 0.00 | 70 | 1029.2 | |
| 20260502025923 | 53 | 0.0 | 0.0 | 0.00 | 0.00 | 0.00 | 67 | 1029.0 | |
| 20260502024325 | 54 | 0.0 | 0.0 | 0.00 | 0.00 | 0.00 | 65 | 1028.9 | |
| 20260502022728 | 51 | 0.0 | 0.0 | 0.00 | 0.00 | 0.00 | 71 | 1029.3 | |
| 20260502021129 | 50 | 0.0 | 0.0 | 0.00 | 0.00 | 0.00 | 72 | 1029.5 | |
| 20260502015531 | 57 | 0.0 | 0.0 | 0.00 | 0.00 | 0.00 | 59 | 1029.1 | |
| 20260502013933 | 57 | 0.0 | 0.0 | 0.00 | 0.00 | 0.00 | 59 | 1029.1 | |
| 20260502012335 | 55 | 0.0 | 0.0 | 0.00 | 0.00 | 0.00 | 63 | 1029.6 | |
| 20260502010737 | 53 | 0.0 | 0.0 | 0.00 | 0.00 | 0.00 | 65 | 1030.0 |